timestamp,wind_dir_avg,wind_spd_max_dir,wind_spd_avg,wind_spd_gust,battery_voltage,lat,long
2018-03-08 00:00:00+00:00,44.0,53.0,12.03,14.08,,47.59359,-54.27349
2018-03-08 00:10:00+00:00,46.0,47.0,11.21,12.76,,47.59359,-54.27349
2018-03-08 00:20:00+00:00,52.0,54.0,10.41,12.64,,47.59359,-54.27349
2018-03-08 00:30:00+00:00,52.0,55.0,11.61,13.74,,47.59359,-54.27349
2018-03-08 00:40:00+00:00,53.0,56.0,13.22,15.26,,47.59359,-54.27349
2018-03-08 00:50:00+00:00,52.0,53.0,10.56,11.84,,47.59359,-54.27349
2018-03-08 01:00:00+00:00,54.0,55.0,12.09,14.37,,47.59359,-54.27349
2018-03-08 01:10:00+00:00,51.0,57.0,11.84,13.83,,47.59359,-54.27349
2018-03-08 01:20:00+00:00,58.0,60.0,10.78,13.87,,47.59359,-54.27349
2018-03-08 01:30:00+00:00,59.0,59.0,12.13,14.3,,47.59359,-54.27349
2018-03-08 01:40:00+00:00,60.0,63.0,11.24,13.41,,47.59359,-54.27349
2018-03-08 01:50:00+00:00,46.0,46.0,9.69,12.2,,47.59359,-54.27349
2018-03-08 02:00:00+00:00,55.0,56.0,11.28,13.69,,47.59359,-54.27349
2018-03-08 02:10:00+00:00,60.0,59.0,11.52,13.53,,47.59359,-54.27349
2018-03-08 02:20:00+00:00,53.0,57.0,11.59,14.36,,47.59359,-54.27349
2018-03-08 02:30:00+00:00,53.0,54.0,10.52,11.65,,47.59359,-54.27349
2018-03-08 02:40:00+00:00,54.0,56.0,10.06,11.63,,47.59359,-54.27349
2018-03-08 02:50:00+00:00,54.0,54.0,10.53,12.0,,47.59359,-54.27349
2018-03-08 03:00:00+00:00,52.0,58.0,11.58,13.4,,47.59359,-54.27349
2018-03-08 03:10:00+00:00,56.0,61.0,10.88,13.76,,47.59359,-54.27349
2018-03-08 03:20:00+00:00,56.0,56.0,11.85,14.87,,47.59359,-54.27349
2018-03-08 03:30:00+00:00,58.0,57.0,9.83,11.7,,47.59359,-54.27349
2018-03-08 03:40:00+00:00,62.0,64.0,9.77,13.57,,47.59359,-54.27349
2018-03-08 03:50:00+00:00,57.0,49.0,10.65,13.66,,47.59359,-54.27349
2018-03-08 04:00:00+00:00,59.0,67.0,10.79,13.92,,47.59359,-54.27349
2018-03-08 04:10:00+00:00,55.0,61.0,11.13,13.6,,47.59359,-54.27349
2018-03-08 04:20:00+00:00,59.0,64.0,10.62,13.04,,47.59359,-54.27349
2018-03-08 04:30:00+00:00,57.0,64.0,11.2,13.22,,47.59359,-54.27349
2018-03-08 04:40:00+00:00,57.0,60.0,12.0,14.56,,47.59359,-54.27349
2018-03-08 04:50:00+00:00,62.0,61.0,11.25,13.58,,47.59359,-54.27349
2018-03-08 05:00:00+00:00,59.0,63.0,10.4,13.27,,47.59359,-54.27349
2018-03-08 05:10:00+00:00,64.0,75.0,9.91,12.42,,47.59359,-54.27349
2018-03-08 05:20:00+00:00,60.0,58.0,10.28,12.4,,47.59359,-54.27349
2018-03-08 05:30:00+00:00,58.0,61.0,9.74,11.3,,47.59359,-54.27349
2018-03-08 05:40:00+00:00,61.0,54.0,9.6,10.77,,47.59359,-54.27349
2018-03-08 05:50:00+00:00,63.0,70.0,10.16,12.93,,47.59359,-54.27349
2018-03-08 06:00:00+00:00,63.0,56.0,11.3,13.88,,47.59359,-54.27349
2018-03-08 06:10:00+00:00,67.0,67.0,12.5,13.26,,47.59359,-54.27349
2018-03-08 06:20:00+00:00,66.0,71.0,10.44,13.24,,47.59359,-54.27349
2018-03-08 06:30:00+00:00,63.0,65.0,10.13,12.06,,47.59359,-54.27349
2018-03-08 06:40:00+00:00,64.0,67.0,12.8,14.42,,47.59359,-54.27349
2018-03-08 06:50:00+00:00,64.0,69.0,10.18,14.47,,47.59359,-54.27349
2018-03-08 07:00:00+00:00,63.0,65.0,10.78,13.66,,47.59359,-54.27349
2018-03-08 07:10:00+00:00,71.0,75.0,11.76,14.91,,47.59359,-54.27349
2018-03-08 07:20:00+00:00,70.0,72.0,11.67,14.57,,47.59359,-54.27349
2018-03-08 07:30:00+00:00,70.0,77.0,10.46,14.13,,47.59359,-54.27349
2018-03-08 07:40:00+00:00,68.0,73.0,10.33,14.1,,47.59359,-54.27349
2018-03-08 07:50:00+00:00,70.0,70.0,9.02,9.87,,47.59359,-54.27349
2018-03-08 08:00:00+00:00,63.0,59.0,10.5,12.15,,47.59359,-54.27349
2018-03-08 08:10:00+00:00,68.0,74.0,9.7,11.85,,47.59359,-54.27349
2018-03-08 08:20:00+00:00,63.0,74.0,9.9,11.73,,47.59359,-54.27349
2018-03-08 08:30:00+00:00,68.0,74.0,11.28,15.24,,47.59359,-54.27349
2018-03-08 08:40:00+00:00,64.0,70.0,8.57,10.31,,47.59359,-54.27349
2018-03-08 08:50:00+00:00,62.0,65.0,9.89,12.37,,47.59359,-54.27349
2018-03-08 09:00:00+00:00,65.0,64.0,8.66,10.2,,47.59359,-54.27349
2018-03-08 09:10:00+00:00,67.0,71.0,10.07,13.73,,47.59359,-54.27349
2018-03-08 09:20:00+00:00,59.0,54.0,10.04,11.78,,47.59359,-54.27349
2018-03-08 09:30:00+00:00,65.0,70.0,10.94,14.56,,47.59359,-54.27349
2018-03-08 09:40:00+00:00,60.0,66.0,9.67,12.62,,47.59359,-54.27349
2018-03-08 09:50:00+00:00,63.0,61.0,9.87,11.1,,47.59359,-54.27349
2018-03-08 10:00:00+00:00,66.0,73.0,9.69,14.22,,47.59359,-54.27349
2018-03-08 10:10:00+00:00,61.0,65.0,11.26,14.26,,47.59359,-54.27349
2018-03-08 10:20:00+00:00,70.0,77.0,11.67,15.26,,47.59359,-54.27349
2018-03-08 10:30:00+00:00,69.0,76.0,9.75,14.1,,47.59359,-54.27349
2018-03-08 10:40:00+00:00,77.0,81.0,9.06,11.23,,47.59359,-54.27349
2018-03-08 10:50:00+00:00,68.0,73.0,7.5,8.69,,47.59359,-54.27349
2018-03-08 11:00:00+00:00,62.0,59.0,8.85,9.97,,47.59359,-54.27349
2018-03-08 11:10:00+00:00,72.0,73.0,8.67,10.56,,47.59359,-54.27349
2018-03-08 11:20:00+00:00,61.0,72.0,10.7,15.45,,47.59359,-54.27349
2018-03-08 11:30:00+00:00,65.0,70.0,8.23,9.82,,47.59359,-54.27349
2018-03-08 11:40:00+00:00,72.0,75.0,8.78,9.73,,47.59359,-54.27349
2018-03-08 11:50:00+00:00,73.0,73.0,8.98,10.41,,47.59359,-54.27349
2018-03-08 12:00:00+00:00,76.0,74.0,9.6,15.25,,47.59359,-54.27349
2018-03-08 12:10:00+00:00,76.0,79.0,11.36,14.91,,47.59359,-54.27349
2018-03-08 12:20:00+00:00,87.0,85.0,9.79,15.14,,47.59359,-54.27349
2018-03-08 12:30:00+00:00,85.0,83.0,12.14,15.02,,47.59359,-54.27349
2018-03-08 12:40:00+00:00,75.0,80.0,9.06,13.91,,47.59359,-54.27349
2018-03-08 12:50:00+00:00,77.0,77.0,8.87,12.55,,47.59359,-54.27349
2018-03-08 13:00:00+00:00,76.0,71.0,8.18,9.55,,47.59359,-54.27349
2018-03-08 13:10:00+00:00,82.0,82.0,11.81,15.15,,47.59359,-54.27349
2018-03-08 13:20:00+00:00,82.0,81.0,11.97,15.1,,47.59359,-54.27349
2018-03-08 13:30:00+00:00,78.0,81.0,10.6,15.02,,47.59359,-54.27349
2018-03-08 13:40:00+00:00,76.0,78.0,9.98,15.2,,47.59359,-54.27349
2018-03-08 13:50:00+00:00,79.0,79.0,10.01,13.72,,47.59359,-54.27349
2018-03-08 14:00:00+00:00,78.0,78.0,12.66,14.96,,47.59359,-54.27349
2018-03-08 14:10:00+00:00,85.0,87.0,11.84,14.67,,47.59359,-54.27349
2018-03-08 14:20:00+00:00,84.0,84.0,12.25,14.57,,47.59359,-54.27349
2018-03-08 14:30:00+00:00,85.0,84.0,12.77,15.06,,47.59359,-54.27349
2018-03-08 14:40:00+00:00,79.0,82.0,10.89,15.06,,47.59359,-54.27349
2018-03-08 14:50:00+00:00,84.0,82.0,13.03,15.04,,47.59359,-54.27349
2018-03-08 15:00:00+00:00,82.0,81.0,9.54,13.23,,47.59359,-54.27349
2018-03-08 15:10:00+00:00,84.0,85.0,10.81,14.6,,47.59359,-54.27349
2018-03-08 15:20:00+00:00,77.0,78.0,12.84,15.68,,47.59359,-54.27349
2018-03-08 15:30:00+00:00,83.0,85.0,9.8,14.57,,47.59359,-54.27349
2018-03-08 15:40:00+00:00,77.0,78.0,12.69,15.79,,47.59359,-54.27349
2018-03-08 15:50:00+00:00,82.0,80.0,12.71,15.3,,47.59359,-54.27349
2018-03-08 16:00:00+00:00,75.0,77.0,14.02,15.84,,47.59359,-54.27349
2018-03-08 16:10:00+00:00,76.0,77.0,12.93,15.76,,47.59359,-54.27349
2018-03-08 16:20:00+00:00,74.0,77.0,13.71,15.72,,47.59359,-54.27349
2018-03-08 16:30:00+00:00,82.0,85.0,9.96,14.36,,47.59359,-54.27349
2018-03-08 16:40:00+00:00,71.0,75.0,13.78,16.05,,47.59359,-54.27349
2018-03-08 16:50:00+00:00,75.0,79.0,11.44,15.54,,47.59359,-54.27349
2018-03-08 17:00:00+00:00,79.0,82.0,14.03,15.69,,47.59359,-54.27349
2018-03-08 17:10:00+00:00,77.0,77.0,12.28,15.53,,47.59359,-54.27349
2018-03-08 17:20:00+00:00,78.0,82.0,13.3,19.32,,47.59359,-54.27349
2018-03-08 17:30:00+00:00,76.0,78.0,14.29,15.78,,47.59359,-54.27349
2018-03-08 17:40:00+00:00,77.0,76.0,14.66,15.75,,47.59359,-54.27349
2018-03-08 17:50:00+00:00,77.0,77.0,13.08,15.78,,47.59359,-54.27349
2018-03-08 18:00:00+00:00,83.0,85.0,12.56,15.37,,47.59359,-54.27349
2018-03-08 18:10:00+00:00,86.0,83.0,10.96,15.15,,47.59359,-54.27349
2018-03-08 18:20:00+00:00,85.0,85.0,8.75,10.79,,47.59359,-54.27349
2018-03-08 18:30:00+00:00,85.0,82.0,10.78,14.88,,47.59359,-54.27349
2018-03-08 18:40:00+00:00,82.0,81.0,13.35,15.6,,47.59359,-54.27349
2018-03-08 18:50:00+00:00,83.0,88.0,9.31,12.95,,47.59359,-54.27349
2018-03-08 19:00:00+00:00,83.0,85.0,7.82,9.3,,47.59359,-54.27349
2018-03-08 19:10:00+00:00,81.0,83.0,11.42,14.97,,47.59359,-54.27349
2018-03-08 19:20:00+00:00,77.0,78.0,11.0,15.83,,47.59359,-54.27349
2018-03-08 19:30:00+00:00,83.0,80.0,10.48,15.13,,47.59359,-54.27349
2018-03-08 19:40:00+00:00,82.0,84.0,11.65,15.34,,47.59359,-54.27349
2018-03-08 19:50:00+00:00,82.0,83.0,9.75,14.5,,47.59359,-54.27349
2018-03-08 20:00:00+00:00,78.0,83.0,10.31,14.78,,47.59359,-54.27349
2018-03-08 20:10:00+00:00,81.0,80.0,11.08,15.04,,47.59359,-54.27349
2018-03-08 20:20:00+00:00,82.0,78.0,11.69,15.41,,47.59359,-54.27349
2018-03-08 20:30:00+00:00,84.0,86.0,10.74,14.89,,47.59359,-54.27349
2018-03-08 20:40:00+00:00,86.0,85.0,13.43,15.41,,47.59359,-54.27349
2018-03-08 20:50:00+00:00,85.0,79.0,10.28,15.12,,47.59359,-54.27349
2018-03-08 21:00:00+00:00,81.0,81.0,8.71,12.92,,47.59359,-54.27349
2018-03-08 21:10:00+00:00,81.0,81.0,9.03,13.82,,47.59359,-54.27349
2018-03-08 21:20:00+00:00,84.0,85.0,10.2,14.93,,47.59359,-54.27349
2018-03-08 21:30:00+00:00,83.0,82.0,8.14,9.23,,47.59359,-54.27349
2018-03-08 21:40:00+00:00,83.0,83.0,6.57,7.7,,47.59359,-54.27349
2018-03-08 21:50:00+00:00,84.0,85.0,8.53,9.51,,47.59359,-54.27349
2018-03-08 22:00:00+00:00,74.0,78.0,9.97,14.53,,47.59359,-54.27349
2018-03-08 22:10:00+00:00,79.0,79.0,14.1,15.64,,47.59359,-54.27349
2018-03-08 22:20:00+00:00,83.0,87.0,8.15,9.25,,47.59359,-54.27349
2018-03-08 22:30:00+00:00,84.0,84.0,8.64,11.92,,47.59359,-54.27349
2018-03-08 22:40:00+00:00,77.0,75.0,8.2,10.39,,47.59359,-54.27349
2018-03-08 22:50:00+00:00,83.0,84.0,8.51,11.96,,47.59359,-54.27349
2018-03-08 23:00:00+00:00,86.0,85.0,8.48,9.7,,47.59359,-54.27349
2018-03-08 23:10:00+00:00,87.0,77.0,6.18,7.59,,47.59359,-54.27349
2018-03-08 23:20:00+00:00,85.0,83.0,6.96,9.29,,47.59359,-54.27349
2018-03-08 23:30:00+00:00,88.0,81.0,6.58,7.77,,47.59359,-54.27349
2018-03-08 23:40:00+00:00,80.0,78.0,7.79,8.57,,47.59359,-54.27349
2018-03-08 23:50:00+00:00,80.0,76.0,7.34,8.22,,47.59359,-54.27349
